Theta_e
283 283 283 282 282 282 281 281 280 280 279 279 279 279 279 279 279 279 279 278 278 279 279 279 279 279 279 278 278 278 277 277 277 277 277 277 276 276 277 276 275 276
282 283 283 282 282 282 281 281 280 280 279 279 279 279 279 279 279 279 279 279 278 278 278 278 278 278 277 277 277 277 277 277 277 278 276 276 276 276 275 275 275 275
282 282 282 281 281 281 280 280 280 279 279 278 279 279 279 279 279 278 278 278 278 278 278 278 278 277 277 276 276 276 276 276 276 276 276 275 275 275 275 275 274 274
282 282 282 281 281 281 280 280 279 279 279 279 279 279 280 280 278 278 278 279 278 277 277 277 277 277 276 276 276 275 275 275 275 275 275 275 276 275 274 274 275 274
282 282 282 282 281 281 280 280 279 279 279 279 279 279 279 278 278 278 277 277 277 277 277 276 276 276 276 275 275 275 275 275 274 274 274 274 275 275 274 274 273 273
282 282 282 281 281 280 280 280 280 279 279 279 279 279 279 278 278 277 277 277 276 277 276 276 276 275 275 275 275 275 274 274 274 274 274 274 274 274 274 274 273 273
282 282 281 281 280 280 280 280 280 280 280 279 279 279 278 278 277 277 277 276 276 276 276 276 275 275 275 274 274 274 273 273 273 273 273 273 273 273 273 273 272 272
282 281 281 281 280 280 280 280 280 280 280 279 279 278 278 278 277 277 276 276 276 276 275 275 275 274 274 274 274 273 273 273 273 273 273 272 272 272 272 273 272 272
282 281 281 280 280 280 280 280 280 279 279 279 278 278 277 277 277 276 276 277 276 275 275 274 274 274 274 273 273 273 273 273 273 273 272 272 271 271 272 272 271 271
282 281 281 281 280 280 280 280 280 279 279 279 278 277 277 277 277 277 277 277 276 275 274 274 274 275 274 273 273 273 273 274 273 272 272 271 271 271 271 271 270 270
282 281 281 281 280 280 280 280 280 279 279 278 277 277 277 277 277 277 277 276 276 275 274 274 274 274 274 273 273 273 273 273 272 271 271 271 271 271 273 270 270 270
282 281 281 281 280 280 280 280 280 279 279 278 278 277 277 277 277 277 277 276 275 275 275 275 274 274 274 274 273 272 271 272 272 272 271 271 271 271 271 270 270 270
282 282 282 281 281 280 280 280 280 279 279 278 278 278 277 277 277 276 276 276 275 274 274 274 274 274 274 273 272 272 272 273 272 271 271 271 270 270 270 270 270 270
282 282 281 281 281 280 280 280 280 279 279 278 278 277 277 277 276 276 276 276 275 274 274 274 274 274 273 272 272 273 273 273 272 271 271 270 270 270 270 270 270 270
282 281 281 281 280 280 280 279 279 279 278 278 278 277 277 277 277 276 275 275 275 275 274 274 274 273 273 272 272 273 273 272 272 271 271 271 270 270 270 270 270 270
281 281 281 280 281 280 280 279 279 279 278 277 277 277 277 276 276 276 275 275 274 274 274 273 273 273 275 277 276 273 272 272 272 271 271 271 270 270 270 270 270 270
281 281 281 281 281 281 280 279 279 278 277 277 277 276 276 275 275 275 275 275 274 274 273 273 273 273 277 279 280 279 274 272 272 271 270 270 270 270 269 270 270 270
282 282 282 281 281 280 280 279 278 278 277 277 276 275 275 275 275 275 274 274 274 274 273 273 273 276 279 280 281 281 278 272 271 270 270 270 270 270 269 269 269 269
282 282 282 281 281 280 279 278 278 277 277 276 276 275 275 274 275 275 274 274 273 273 273 273 273 277 279 281 282 282 281 275 270 270 270 269 270 270 269 269 269 269
282 282 281 281 280 280 279 278 277 277 277 277 276 275 275 275 274 274 274 273 273 273 273 273 272 276 280 281 282 283 283 279 269 270 270 269 270 270 270 270 269 269
282 282 281 281 280 279 278 278 277 277 277 276 276 276 275 274 274 274 274 274 273 273 273 272 272 276 280 282 282 283 283 282 272 272 271 271 271 271 271 270 269 269
282 281 281 281 280 279 278 278 277 277 276 276 276 276 275 275 275 275 274 274 273 273 272 272 272 277 279 281 283 283 284 280 274 273 272 272 271 272 271 271 270 270
282 281 281 280 279 278 277 277 277 277 277 276 275 276 275 275 274 274 274 274 273 272 272 272 272 276 279 281 282 283 283 278 273 273 273 272 272 272 272 271 271 270
282 281 280 280 279 278 277 278 278 277 277 276 276 275 275 275 275 274 274 274 273 272 272 272 272 274 279 281 282 283 282 277 274 273 273 273 272 272 272 271 271 272
281 281 280 279 279 278 278 278 278 277 277 277 276 276 276 276 275 275 274 273 272 272 273 272 272 273 277 280 282 282 282 276 273 272 272 272 272 271 271 270 270 271
281 281 280 280 279 279 278 279 279 278 277 276 276 276 276 276 274 274 273 273 271 270 270 271 270 269 272 279 281 282 283 277 272 272 272 272 272 271 269 269 269 267
Wind_Speed
9 8 9 9 7 7 8 10 8 9 8 7 8 7 7 6 5 6 6 5 4 5 6 7 8 8 7 6 6 6 6 7 6 5 6 6 6 6 6 5 4 5
9 8 7 7 6 6 5 6 8 8 8 7 6 6 5 6 5 6 7 6 5 5 6 7 7 8 7 6 6 7 6 6 6 3 6 6 5 6 6 5 5 3
8 8 9 10 10 9 8 6 6 6 7 6 6 6 7 5 7 5 6 6 7 6 6 7 8 7 7 6 5 6 6 6 6 4 6 6 5 6 4 4 4 4
8 8 9 8 8 9 8 8 6 6 6 7 7 6 6 6 6 6 5 5 6 7 7 7 8 7 7 6 6 6 5 6 5 5 6 4 4 5 4 4 4 3
9 8 7 7 6 7 7 9 9 8 8 7 7 6 7 7 7 6 6 5 5 7 7 8 7 7 7 6 6 7 5 6 4 5 6 5 3 5 3 5 4 4
7 7 7 8 8 9 9 9 9 10 9 8 9 7 7 7 7 7 7 7 5 7 8 7 8 6 7 7 6 6 6 6 5 5 6 5 3 3 3 4 4 4
10 9 9 8 8 8 9 9 9 9 9 8 8 8 9 9 8 8 7 6 7 7 8 8 8 7 6 6 7 7 6 6 5 6 6 4 4 3 2 3 3 4
10 8 9 8 10 9 9 9 9 10 9 8 9 8 9 9 9 7 6 7 7 7 7 7 7 7 6 6 7 7 6 5 6 6 6 5 4 3 3 3 3 4
10 10 10 11 11 10 10 10 9 9 8 10 9 8 7 7 8 8 8 7 7 7 7 6 6 6 5 5 6 7 7 6 6 6 6 6 5 5 4 3 3 3
11 10 11 12 12 11 12 10 9 8 8 8 8 7 8 6 6 7 7 8 8 8 7 7 7 6 5 5 6 6 7 7 6 5 5 5 5 5 4 4 4 4
12 11 12 13 12 10 11 10 9 9 7 8 7 7 6 6 6 6 7 8 9 9 8 8 8 8 8 7 5 5 6 6 5 4 4 4 5 4 5 4 4 4
13 12 13 13 12 10 11 10 9 8 8 7 8 9 7 7 7 7 7 8 7 8 8 8 8 8 8 8 7 5 5 5 5 5 4 4 4 4 4 4 4 4
13 12 12 12 11 10 9 8 9 9 9 9 8 8 8 8 7 7 6 7 7 7 8 9 8 7 7 7 6 6 6 6 6 5 4 4 4 4 4 4 4 4
11 10 10 10 8 7 8 8 8 8 8 7 7 8 9 9 9 9 7 7 7 7 7 7 7 7 7 7 6 6 7 6 6 6 5 4 4 4 4 4 4 5
10 9 8 8 8 8 9 9 8 8 7 7 7 7 7 7 7 7 8 7 7 7 7 7 7 7 7 7 7 6 6 6 7 7 6 6 4 4 4 5 4 5
10 8 9 9 9 10 9 8 8 8 8 8 8 7 6 6 6 6 7 8 9 7 7 6 6 5 7 12 10 8 7 6 6 6 6 5 5 5 5 5 5 5
9 9 9 10 10 9 7 9 9 8 7 7 7 6 7 7 6 8 7 7 8 8 8 7 6 5 11 13 14 13 8 7 7 6 5 5 5 7 7 7 5 5
10 10 11 11 10 9 9 8 8 8 8 8 7 7 6 5 7 7 6 6 6 6 7 7 6 8 13 14 15 15 12 8 5 5 5 6 6 7 6 5 6 5
10 11 11 10 10 9 8 8 9 9 9 9 10 8 6 7 8 8 7 6 7 8 8 7 6 10 14 15 15 16 16 10 5 5 6 6 6 6 6 6 5 5
11 10 10 10 9 9 9 9 10 11 10 8 7 7 9 8 7 8 7 8 8 9 8 7 7 9 15 16 16 17 16 12 5 6 5 5 6 6 5 6 6 5
11 11 11 10 10 10 9 10 11 9 10 9 9 10 11 11 10 10 9 8 8 7 7 7 7 12 15 16 17 17 17 12 6 6 6 5 6 6 7 6 5 6
12 11 11 10 10 10 11 11 11 12 12 10 8 7 6 5 5 5 8 8 7 7 7 9 8 14 16 17 18 18 18 9 7 7 7 6 7 8 8 6 6 7
12 12 11 11 11 11 12 12 12 12 10 8 9 9 9 9 10 9 7 8 9 9 10 10 8 13 17 18 18 19 14 7 7 7 7 8 8 8 7 6 6 6
12 12 12 12 11 13 14 12 10 7 8 8 11 11 11 11 9 7 7 8 10 11 12 11 10 11 17 18 18 19 14 8 7 7 8 8 7 8 7 6 7 14
10 11 12 12 13 12 11 11 11 11 8 7 9 8 9 8 8 8 8 7 9 10 8 10 9 8 15 17 19 19 14 7 8 7 8 9 8 8 7 7 7 10
10 11 11 12 12 10 9 10 8 8 9 9 8 7 7 7 7 8 10 10 8 8 8 10 9 7 8 17 18 19 20 9 7 8 11 11 9 8 7 7 7 7
Wind_Direction
158 157 157 159 162 162 157 154 157 151 151 152 150 157 157 148 140 128 124 125 136 132 128 115 109 106 104 102 102 99 96 101 97 101 102 105 102 105 104 104 98 109
166 158 150 143 144 149 154 156 154 154 151 152 149 143 140 138 142 138 139 139 140 134 126 114 108 110 109 108 108 107 104 106 105 108 109 101 105 99 102 108 113 120
162 159 159 162 164 162 159 154 150 146 145 146 141 147 142 141 140 140 141 146 142 138 124 116 109 104 106 108 109 108 115 113 107 102 98 105 108 105 110 112 112 119
171 167 161 158 158 161 157 149 144 136 130 144 161 155 144 142 138 142 146 154 145 135 124 113 112 112 111 114 113 105 107 99 109 108 102 95 100 112 117 112 113 109
166 161 159 154 153 156 157 156 154 154 160 158 144 146 142 143 143 148 153 158 154 132 121 116 115 118 120 117 119 115 108 112 110 110 108 105 109 113 126 118 120 119
164 162 158 158 162 164 167 168 163 159 157 161 163 152 151 148 151 157 162 160 154 130 122 120 123 126 130 127 119 117 125 121 126 116 110 114 108 101 116 124 129 130
168 165 164 161 165 175 170 169 165 163 169 163 149 162 157 157 161 164 167 161 142 135 133 136 135 136 136 132 123 124 122 126 125 120 120 121 116 108 118 133 136 131
172 165 161 163 171 175 177 173 169 170 164 158 168 166 163 161 161 162 162 153 140 137 137 135 135 135 140 131 132 129 130 133 132 130 130 136 128 140 159 156 144 132
168 170 166 172 175 179 180 177 173 168 167 167 167 164 163 163 163 161 160 151 141 141 136 133 133 134 140 139 141 143 142 143 144 141 144 151 155 167 169 160 140 137
176 171 172 177 181 183 182 179 171 169 169 168 164 157 159 159 164 163 159 155 144 142 139 137 138 141 146 152 151 149 147 144 146 144 145 159 165 168 167 160 153 142
178 177 180 183 184 183 184 174 171 167 168 165 155 158 158 158 168 171 161 158 154 151 148 149 146 144 148 134 139 145 147 146 144 140 153 167 173 174 171 161 161 166
182 182 187 186 184 184 180 174 169 168 166 165 165 161 160 171 170 173 173 162 149 148 149 150 140 152 156 155 151 148 144 141 141 150 164 172 177 177 169 173 170 180
186 186 185 186 186 183 173 171 172 171 169 168 167 164 168 171 174 173 175 156 148 146 153 138 153 162 159 153 148 150 153 146 153 161 172 176 183 178 181 181 181 185
187 182 185 186 183 177 174 172 171 170 170 161 161 170 176 179 176 175 166 154 151 150 153 158 167 167 158 152 152 157 148 160 166 173 177 186 185 192 192 197 196 196
178 179 179 179 178 177 175 175 173 169 164 164 172 175 181 183 177 167 155 150 149 156 159 168 174 177 171 164 159 165 170 173 178 181 182 186 196 206 213 209 210 204
176 175 177 176 179 183 179 171 171 170 169 169 176 179 177 176 173 170 164 158 159 163 169 175 183 182 177 173 171 170 176 181 182 187 185 189 197 212 224 220 217 215
172 180 175 183 186 177 172 172 173 173 171 171 174 177 177 174 174 174 176 170 169 169 177 186 187 186 183 183 186 183 177 182 187 189 187 192 204 210 220 220 222 221
181 179 182 186 179 181 177 173 172 172 174 176 175 175 174 171 188 189 176 171 169 174 189 193 195 191 190 193 195 195 188 188 186 186 188 201 207 216 222 218 223 225
180 182 185 183 184 179 174 173 175 176 178 179 182 175 163 182 192 180 186 178 177 184 197 199 203 198 197 199 202 202 199 184 187 184 191 206 210 216 218 221 219 226
180 181 185 185 181 179 175 178 180 188 186 179 168 169 182 187 186 188 183 185 188 195 201 204 205 202 202 204 206 207 205 186 179 187 199 205 213 216 221 220 218 217
178 183 186 183 182 179 179 185 188 187 183 182 180 185 185 188 188 187 193 189 193 196 204 210 212 206 206 207 209 210 209 192 169 190 198 210 215 222 222 221 219 216
182 184 184 182 180 180 184 190 191 192 188 182 181 186 189 186 196 195 194 192 193 197 206 220 218 208 208 209 209 210 208 198 173 193 198 207 218 222 226 220 216 212
183 182 184 183 182 184 190 193 193 194 192 178 181 187 186 193 198 197 189 190 197 202 209 222 219 211 209 210 210 209 206 199 182 192 205 210 221 223 226 223 218 217
182 183 184 185 183 191 195 198 196 194 192 182 186 187 195 201 193 189 195 199 203 211 211 214 221 210 211 212 210 208 206 198 191 195 210 216 224 228 221 225 223 229
181 182 186 187 192 196 193 193 193 195 191 185 200 199 204 190 187 196 201 204 212 217 212 216 227 213 213 215 212 210 208 193 191 197 212 222 221 227 225 222 232 233
182 185 189 189 194 191 190 196 189 183 190 192 202 205 203 194 195 203 205 212 205 208 216 219 224 224 215 220 218 214 211 195 186 194 218 220 220 224 222 235 229 229